Weather History for Minneapolis, MN

Change the Weather History Date:

Sunday, December 30, 2012

  Actual Average Record
Temperature  
Mean Temperature 13 °F 16 °F  
Max Temperature 25 °F 24 °F 51 °F (2004)
Min Temperature 1 °F 9 °F -20 °F (1973)
Degree Days  
Heating Degree Days 52 49  
Month to date heating degree days 1229 1356  
Since 1 July heating degree days 2717 2975  
Cooling Degree Days 0 0  
Month to date cooling degree days 0 0  
Year to date cooling degree days 1131 753  
Moisture  
Dew Point 8 °F    
Average Humidity 83    
Maximum Humidity 95    
Minimum Humidity 71    
Precipitation  
Precipitation 0.00 in 0.04 in 0.39 in (1884)
Month to date precipitation 1.64 1.13  
Year to date precipitation 29.59 30.58  
Snow  
Snow 0.00 in 0.30 in 4.00 in (1906)
Month to date snowfall 15.0 11.5  
Since 1 July snowfall 15.8 21.4  
Snow Depth 3.00 in    
Sea Level Pressure  
Sea Level Pressure 30.10 in    
Wind  
Wind Speed 5 mph (SSE)    
Max Wind Speed 12 mph    
Max Gust Speed 15 mph    
Visibility 7 miles    
Events      
T = Trace of Precipitation, MM = Missing Value Source: NWS Daily Summary

Daily Weather History Graph

Daily Weather History Graph

Search for Another Location

Airport:

Trip Planner

Search our weather history database for the weather conditions in past years. The results will help you decide how hot, cold, wet, or windy it might be!

Date:

Astronomy

Dec. 30, 2012 Rise Set
Actual Time 7:50 AM CST 4:40 PM CST
Civil Twilight 7:17 AM CST 5:14 PM CST
Nautical Twilight 6:40 AM CST 5:51 PM CST
Astronomical Twilight 6:04 AM CST 6:27 PM CST
Moon 7:19 PM CST (12/30) 8:53 AM CST (12/30)
Length of Visible Light 9h 57m
Length of Day
8h 50m
Waning Gibbous, 95% of the Moon is Illuminated
Dec 30
Waning Gibbous
Jan 4
Last Quarter
Jan 11
New
Jan 18
First Quarter
Jan 26
Full

Hourly Weather History & Observations

Time (CST) Temp. Windchill Dew Point Humidity Pressure Visibility Wind Dir Wind Speed Gust Speed Precip Events Conditions
12:53 AM 3.9 °F -3.4 °F 1.0 °F 88% 30.22 in 5.0 mi SW 3.5 mph - N/A   Clear
1:53 AM 3.9 °F - 1.0 °F 88% 30.25 in 6.0 mi Calm Calm - N/A   Clear
2:53 AM 3.9 °F - 1.0 °F 88% 30.25 in 6.0 mi Calm Calm - N/A   Clear
3:53 AM 3.9 °F - 1.0 °F 88% 30.25 in 6.0 mi Calm Calm - N/A   Mostly Cloudy
4:53 AM 3.9 °F -3.4 °F 1.0 °F 88% 30.24 in 6.0 mi South 3.5 mph - N/A   Mostly Cloudy
5:53 AM 3.9 °F - 1.0 °F 88% 30.24 in 6.0 mi Calm Calm - N/A   Partly Cloudy
6:53 AM 1.9 °F -9.2 °F -0.0 °F 91% 30.23 in 6.0 mi ESE 5.8 mph - N/A   Partly Cloudy
7:53 AM 1.0 °F -10.3 °F -2.0 °F 87% 30.22 in 5.0 mi SE 5.8 mph - N/A   Partly Cloudy
8:53 AM 1.9 °F -9.2 °F -0.0 °F 91% 30.22 in 5.0 mi SE 5.8 mph - N/A   Partly Cloudy
9:53 AM 6.1 °F -4.3 °F 1.9 °F 83% 30.22 in 6.0 mi SE 5.8 mph - N/A   Partly Cloudy
10:53 AM 10.0 °F 1.8 °F 5.0 °F 80% 30.19 in 7.0 mi SE 4.6 mph - N/A   Scattered Clouds
11:53 AM 12.9 °F 2.6 °F 7.0 °F 77% 30.15 in 8.0 mi SE 6.9 mph - N/A   Mostly Cloudy
12:53 PM 17.1 °F 6.6 °F 10.0 °F 74% 30.08 in 9.0 mi SE 8.1 mph - N/A   Mostly Cloudy
1:53 PM 18.0 °F 7.7 °F 10.9 °F 74% 30.04 in 9.0 mi ESE 8.1 mph - N/A   Mostly Cloudy
2:53 PM 21.0 °F 10.6 °F 14.0 °F 74% 29.99 in 8.0 mi ESE 9.2 mph - N/A   Overcast
3:53 PM 23.0 °F 17.0 °F 15.1 °F 72% 29.97 in 9.0 mi ESE 4.6 mph - N/A   Mostly Cloudy
4:53 PM 23.0 °F 14.7 °F 16.0 °F 74% 29.97 in 10.0 mi SSE 6.9 mph - N/A   Mostly Cloudy
5:53 PM 23.0 °F 17.0 °F 16.0 °F 74% 29.96 in 9.0 mi SE 4.6 mph - N/A   Mostly Cloudy
6:53 PM 23.0 °F 17.0 °F 16.0 °F 74% 29.95 in 9.0 mi South 4.6 mph - N/A   Mostly Cloudy
7:53 PM 24.1 °F 17.0 °F 17.1 °F 75% 29.94 in 8.0 mi SW 5.8 mph - N/A   Scattered Clouds
8:53 PM 21.9 °F 15.7 °F 16.0 °F 78% 29.94 in 9.0 mi SW 4.6 mph - N/A   Scattered Clouds
9:53 PM 21.0 °F 10.6 °F 17.1 °F 85% 29.95 in 8.0 mi West 9.2 mph - N/A   Scattered Clouds
10:53 PM 19.0 °F 8.2 °F 15.1 °F 85% 29.99 in 8.0 mi WNW 9.2 mph - N/A   Partly Cloudy
11:53 PM 18.0 °F 7.7 °F 12.9 °F 81% 30.01 in 8.0 mi West 8.1 mph - N/A   Partly Cloudy